GFSNW_850_dewp_108.txt.gz
Dewpoint
8 8 7 -4 -11 -11 -1 2 0 -1 1 1 -1 -2 -2 -2 -2 -1 0 2 2 1 3 1 1 -2 0 -1 -1 -3 -4 -1 -1 0 0 1 2 3 3 -0 2 0 2 1
8 8 6 -8 -13 -10 0 2 -1 -1 2 0 -2 -1 -3 -2 -3 -1 -2 1 -1 -2 3 3 -1 -1 -2 -1 -2 -2 -3 -2 -1 -3 -3 -1 1 2 3 3 1 3 5 3
8 7 0 -9 -11 -5 -2 -0 -1 -0 2 1 -2 -1 -4 -1 -3 -2 -1 -0 -3 -1 2 0 2 -1 -1 -1 -0 -1 -4 -3 -1 -1 0 -0 1 0 2 3 5 5 5 4
8 6 -4 -12 -11 -6 -3 -4 -2 -4 -2 -2 -3 -5 -6 -2 -2 -3 -3 0 -3 -1 3 2 3 0 -0 -1 -1 -2 -2 -2 -2 -2 -1 -1 -1 -0 0 1 5 3 3 3
7 4 -6 -12 -10 -6 -3 -4 -3 -3 -3 -4 -4 -3 -6 -6 -6 -3 -1 -2 -3 -3 1 1 2 2 1 1 -2 -4 -3 -6 -3 -0 -0 -1 -1 -3 -0 3 5 4 2 1
6 0 -5 -12 -11 -10 -7 -6 -7 -7 -5 -6 -5 -5 -7 -6 -7 -6 -4 -4 -2 -2 -1 -2 -2 -2 0 2 1 -2 -2 -1 1 4 2 -1 2 2 -1 4 4 3 4 3
5 -3 -7 -11 -12 -12 -12 -7 -9 -7 -6 -7 -6 -6 -7 -6 -6 -5 -7 -5 -3 -3 -3 -1 -0 -0 2 2 1 -1 -0 -0 0 2 2 3 4 1 -1 3 3 2 2 1
2 -3 -7 2 -9 -11 -11 -12 -11 -9 -7 -7 -7 -7 -7 -7 -6 -7 -7 -5 -4 -4 -1 2 2 1 2 1 -0 -0 0 3 3 3 2 4 2 2 2 2 4 3 3 1
-1 -2 -4 1 -4 -8 -11 -11 -11 -9 -8 -7 -7 -7 -7 -5 -5 -6 -6 -5 -3 -2 -0 2 4 1 3 3 3 1 1 1 2 2 5 5 2 0 1 0 4 2 2 1
-1 -1 -0 -7 -2 -4 -11 -11 -9 -10 -7 -5 -7 -7 -5 -5 -5 -5 -5 -4 -2 -1 -0 0 1 0 -1 2 2 3 2 2 3 1 3 3 -0 0 1 3 3 2 2 2
1 -0 -6 -8 -3 -10 -11 -12 -9 -11 -6 -5 -5 -5 -6 -5 -5 -5 -4 -2 -2 -2 -1 -1 -1 -1 -1 -0 -0 0 1 1 1 2 2 3 1 1 3 3 2 2 2 1
1 -2 -5 -5 -0 -11 -12 -10 -9 -13 -12 -4 -5 -5 -5 -5 -5 -4 -2 -3 -2 -2 -1 -1 -1 -1 -2 -2 2 -2 2 -0 0 0 1 -1 1 2 2 2 2 2 2 2
1 -0 -5 -1 -1 -9 -12 -9 -11 -15 -6 -6 -7 -6 -7 -7 -6 -4 -3 -2 -3 -2 -2 -2 -1 -0 -1 -1 0 -0 -2 -2 -0 0 1 0 2 2 3 2 3 3 3 2
1 2 -5 -2 -5 -12 -11 -9 -13 -10 -8 -5 -4 -4 -5 -5 -6 -4 -3 -3 -3 -2 -2 -2 -1 0 -0 -1 -1 -1 -2 -2 -0 1 -0 2 2 2 2 3 2 2 3 3
1 1 -5 -4 -6 -14 -9 -10 -8 -8 -8 -5 -4 -5 -3 -3 -4 -6 -5 -5 -4 -3 -3 -2 -2 -1 0 -0 -1 1 -0 -0 -0 2 0 0 -0 1 2 2 2 3 1 3
2 -1 -2 -4 -7 -12 -8 -8 -7 -9 -9 -9 -3 -5 -2 -2 -3 -3 -4 -4 -5 -4 -3 -3 -3 -3 -2 -0 0 1 -0 0 1 0 1 1 1 1 1 1 1 2 2 3
1 1 -3 -8 -5 -10 -8 -9 -9 -10 -7 -10 -5 -5 -2 -2 -3 -3 -3 -4 -4 -5 -4 -4 -3 -3 -1 -1 -1 1 -1 0 0 -0 1 1 1 1 1 1 1 1 1 1
1 -0 -4 -5 -9 -8 -8 -10 -9 -6 -8 -6 -6 -4 -4 -2 -3 -3 -4 -4 -4 -4 -4 -4 -3 -3 -1 -1 -2 -1 -1 -2 -1 -0 -1 0 1 1 1 1 1 1 0 0
-0 -0 -6 -11 -7 -9 -9 -10 -7 -8 -10 -4 -7 -5 -5 -2 -3 -4 -4 -4 -3 -3 -2 -4 -3 -3 -1 -3 -1 -1 -2 -2 -2 -2 -1 -0 0 1 1 0 1 1 1 1
0 -1 -13 -9 -9 -8 -10 -9 -9 -10 -9 -5 -4 -5 -4 -4 -4 -5 -4 -3 -3 -2 -3 -3 -1 -2 -2 -2 -2 -2 -3 -2 -2 -2 -2 -1 -1 -1 -1 -1 -1 -1 -0 0
-0 -4 -7 -5 -7 -8 -6 -4 -5 -5 -4 -5 -5 -5 -4 -4 -6 -4 -5 -4 -2 -2 -3 -1 -2 -1 -2 -2 -3 -3 -3 -4 -2 -2 -2 -2 -3 -2 -2 -2 -2 -2 -1 -1
-1 -10 -4 -4 -4 -4 -5 -5 -4 -4 -5 -4 -5 -5 -4 -3 -5 -5 -4 -4 -4 -5 -1 -0 -2 -4 -2 -2 -3 -4 -5 -7 -7 -6 -4 -3 -3 -3 -2 -2 -3 -2 -2 -2
-10 -8 -3 -4 -3 -5 -6 -5 -4 -4 -3 -4 -4 -5 -5 -4 -5 -5 -4 -7 -5 -4 -1 -2 -4 -3 -3 -4 -5 -8 -10 -11 -11 -12 -12 -12 -6 -4 -3 -3 -3 -3 -3 -3
-9 -4 -3 -3 -5 -4 -5 -3 -2 -4 -4 -5 -7 -4 -5 -5 -6 -5 -7 -6 -5 -3 -4 -5 -6 -3 -5 -6 -9 -11 -12 -13 -15 -16 -15 -15 -13 -7 -4 -4 -4 -4 -5 -8
-6 -4 -4 -5 -5 -3 -2 -2 -3 -4 -5 -8 -6 -6 -5 -8 -6 -6 -5 -4 -6 -4 -4 -6 -4 -4 -7 -10 -12 -13 -13 -15 -16 -15 -14 -13 -12 -8 -5 -5 -4 -4 -5 -8
-3 -5 -5 -4 -4 -3 -3 -3 -3 -5 -9 -11 -10 -7 -8 -7 -7 -6 -8 -7 -7 -6 -7 -4 -6 -9 -12 -13 -13 -12 -14 -16 -14 -12 -11 -11 -9 -6 -5 -5 -5 -5 -6 -9
-4 -5 -4 -5 -4 -4 -3 -3 -5 -8 -12 -6 -7 -10 -10 -7 -7 -7 -9 -8 -8 -4 -3 -8 -11 -12 -13 -13 -12 -15 -17 -13 -11 -11 -10 -8 -6 -6 -6 -6 -5 -6 -6 -7

GFSNW_850_dewp_111.txt.gz
Dewpoint
3 2 6 5 -3 -9 -6 0 1 1 2 1 -2 -2 -2 -3 -3 -1 1 2 2 1 3 -0 -5 -4 -3 -1 -1 -1 -3 -0 -0 0 -1 1 1 3 3 1 3 3 0 2
3 3 6 4 -1 -9 -1 1 0 1 2 -2 -2 -2 -3 -2 -3 -3 -1 2 -1 -1 2 1 -1 -1 -2 -1 -1 1 -1 -2 -2 -3 -4 -2 1 1 3 2 -0 5 0 4
3 2 6 1 -8 -10 -1 -2 -2 1 2 1 -2 -1 -3 -2 -2 -3 -2 -1 -2 -1 2 0 0 -1 -1 -1 -1 -1 -3 -4 -3 -1 -1 -0 1 0 1 2 1 4 4 5
5 5 5 -0 -11 -5 -1 -4 -3 -2 1 -1 -3 -5 -4 -1 -1 -3 -3 -1 -2 -1 3 2 2 -0 -1 -2 -1 -2 -3 -4 -3 -3 -3 -1 -1 -0 1 2 3 1 5 5
5 5 3 -5 -9 -4 -3 -3 -3 -3 -3 -3 -4 -5 -6 -3 -5 -2 -1 -2 -3 -3 0 1 2 2 1 1 -2 -4 -4 -6 -1 1 -1 -1 -2 -1 3 3 3 2 3 4
5 4 -1 -7 -8 -4 -3 -6 -5 -6 -5 -6 -6 -4 -6 -6 -6 -5 -3 -3 -2 -1 -1 -2 -2 -1 0 2 1 -3 -2 -2 1 2 1 -1 3 3 2 3 2 3 4 3
4 2 -2 -2 -9 -4 -8 -6 -8 -8 -5 -7 -6 -6 -7 -6 -6 -5 -6 -3 -2 -3 -3 -0 -1 0 2 1 -1 -1 1 0 1 3 2 2 4 1 1 3 3 3 2 1
4 1 1 -0 -8 -7 -9 -7 -9 -9 -6 -7 -7 -7 -6 -6 -7 -7 -6 -5 -4 -4 -0 1 1 1 2 1 0 -1 0 2 2 2 0 4 2 2 2 2 4 2 3 2
3 2 -1 -3 -7 -8 -9 -8 -9 -10 -7 -7 -7 -7 -7 -6 -5 -6 -6 -5 -3 -1 0 3 4 2 2 2 3 1 0 1 2 2 3 3 3 0 0 0 3 2 2 2
2 1 1 1 -3 -9 -8 -9 -8 -9 -6 -5 -7 -7 -6 -6 -6 -5 -5 -4 -2 -1 -0 0 1 0 -1 1 2 2 2 2 2 2 3 2 -1 1 1 2 1 2 2 2
1 1 1 0 -5 -4 -6 -10 -8 -11 -5 -4 -6 -6 -5 -5 -6 -5 -5 -2 -2 -2 -1 -1 -1 -1 -1 -0 -0 -0 1 0 1 1 2 3 1 1 4 2 2 2 2 2
1 1 -1 -7 -1 -4 -9 -9 -8 -10 -9 -4 -5 -5 -5 -5 -5 -4 -2 -3 -3 -2 -2 -2 -2 -1 -3 -2 1 -2 1 -1 0 -0 0 -1 2 2 2 2 2 2 3 2
2 1 -5 -2 0 -4 -10 -8 -10 -12 -6 -6 -7 -7 -6 -5 -4 -3 -3 -3 -3 -2 -2 -3 -2 -1 -3 -1 -0 -0 -2 -2 -1 0 0 1 1 2 3 2 3 3 3 2
2 2 1 -1 1 -1 -11 -8 -13 -12 -10 -6 -5 -5 -6 -6 -5 -4 -4 -3 -3 -2 -2 -2 -2 -0 -1 -1 -2 -2 -3 -2 -1 1 -0 1 2 1 1 3 2 2 2 4
2 2 1 -4 1 -7 -10 -8 -9 -8 -8 -4 -4 -4 -3 -4 -5 -4 -3 -3 -2 -3 -3 -2 -2 -1 -1 -1 -2 -2 -0 -1 -0 1 -0 -0 -0 1 1 1 2 2 2 3
2 2 2 -0 -1 -10 -7 -9 -7 -5 -8 -8 -3 -4 -2 -3 -4 -4 -5 -4 -4 -4 -3 -3 -3 -3 -2 -1 -1 -0 0 0 0 -0 1 0 0 1 1 1 1 1 1 2
2 2 1 -1 -2 -8 -7 -9 -8 -9 -9 -11 -5 -4 -3 -3 -4 -4 -4 -5 -5 -5 -5 -5 -3 -3 -2 -2 -1 0 -0 0 0 -0 -0 1 1 1 0 1 1 1 1 1
2 0 0 -1 -1 -6 -6 -10 -8 -6 -9 -9 -7 -4 -4 -3 -4 -4 -4 -4 -4 -4 -4 -4 -3 -3 -2 -1 -3 0 -1 -1 -1 -0 -1 -1 -1 0 0 0 1 1 1 1
1 0 -2 -2 -4 -7 -8 -9 -5 -7 -8 -6 -7 -5 -5 -4 -4 -5 -4 -4 -4 -3 -3 -4 -4 -3 -2 -3 -3 -1 -1 -2 -2 -2 -2 -1 -0 0 -0 -0 0 0 0 0
0 -2 -0 -3 -8 -9 -8 -8 -8 -9 -9 -6 -5 -4 -4 -4 -4 -5 -4 -3 -4 -4 -4 -3 -2 -2 -4 -3 -3 -2 -2 -3 -3 -2 -2 -2 -1 -2 -2 -2 -2 -2 -2 -2
-1 -1 -6 -5 -6 -7 -7 -6 -6 -6 -5 -6 -4 -4 -4 -4 -6 -5 -5 -5 -5 -5 -4 -4 -3 -2 -3 -2 -2 -3 -3 -4 -4 -4 -3 -2 -2 -2 -2 -3 -2 -2 -2 -2
0 -1 -5 -5 -5 -3 -3 -6 -4 -5 -6 -4 -5 -5 -4 -4 -5 -5 -5 -6 -7 -5 -3 -3 -4 -5 -2 -2 -2 -3 -4 -6 -9 -10 -11 -11 -10 -8 -5 -4 -4 -3 -3 -3
-3 -6 -4 -2 -2 -4 -7 -6 -6 -6 -4 -4 -4 -5 -5 -5 -5 -5 -7 -9 -6 -5 -1 -2 -4 -4 -2 -3 -4 -5 -8 -12 -13 -13 -14 -14 -14 -14 -13 -8 -5 -5 -4 -4
-3 -3 -3 -2 -2 -5 -6 -6 -4 -5 -5 -5 -7 -4 -5 -5 -6 -6 -8 -6 -5 -3 -4 -5 -7 -4 -3 -4 -6 -10 -12 -13 -14 -15 -15 -16 -15 -14 -13 -10 -6 -5 -5 -5
-4 -3 -4 -4 -5 -4 -3 -3 -4 -4 -6 -9 -7 -6 -6 -9 -6 -6 -4 -3 -5 -4 -5 -6 -5 -3 -4 -7 -10 -13 -14 -14 -14 -15 -15 -13 -11 -11 -10 -8 -6 -6 -5 -5
-3 -5 -5 -4 -4 -3 -3 -3 -4 -5 -9 -13 -11 -9 -9 -6 -7 -7 -7 -7 -7 -7 -8 -4 -4 -5 -8 -13 -14 -14 -14 -14 -16 -14 -12 -11 -9 -8 -7 -6 -6 -6 -6 -6
-4 -5 -5 -4 -4 -3 -3 -4 -5 -8 -14 -7 -8 -11 -11 -9 -9 -8 -10 -9 -8 -8 -3 -4 -8 -14 -14 -15 -14 -13 -15 -18 -15 -11 -10 -8 -7 -7 -7 -7 -7 -7 -7 -7

GFSNW_850_dewp_114.txt.gz
Dewpoint
2 3 3 4 4 1 -1 1 1 1 1 0 -2 -2 -2 -3 -3 -1 2 1 1 1 1 -2 -6 -4 -5 -2 -0 -1 -3 -1 -2 0 -2 -0 1 3 3 1 2 3 0 4
4 3 5 4 2 -1 -0 1 1 1 2 -2 -2 -2 -2 -3 -3 -1 1 0 -1 0 2 1 -2 -2 -2 -1 -1 1 -0 -2 -4 -3 -4 -2 0 -0 2 1 -0 4 2 4
4 5 5 3 0 -1 0 -3 -0 1 2 0 -2 -2 -1 -2 -3 -4 -2 -2 -2 -0 1 -1 -2 -1 -2 -1 -1 -1 -4 -4 -3 -1 -1 -1 1 0 1 1 3 1 4 4
5 4 4 3 1 -0 0 -4 -2 -0 0 0 -2 -4 -3 -1 -1 -3 -3 -2 -2 0 2 1 2 -2 -1 -2 -2 -2 -4 -4 -3 -3 -3 -2 -2 1 3 3 3 1 4 5
5 4 5 3 -0 0 -4 -4 -3 -2 -3 -2 -4 -5 -4 -2 -4 -2 -2 -2 -3 -1 0 1 2 1 -0 0 -2 -5 -4 -5 -0 2 -1 -2 3 2 3 3 4 3 4 4
4 3 2 -1 -5 2 -1 -5 -4 -5 -5 -6 -4 -5 -6 -4 -5 -5 -3 -3 -3 -0 -1 -2 -2 -1 1 1 -0 -3 -3 -2 -0 1 1 -1 3 4 3 2 2 3 4 2
4 4 2 -1 -5 1 -5 -6 -6 -7 -5 -6 -6 -6 -7 -6 -6 -4 -6 -3 -2 -2 -0 -1 -0 1 1 -1 -2 -1 1 1 1 1 -0 2 4 1 1 2 2 3 2 1
3 3 2 -1 -5 -2 -2 -6 -8 -9 -6 -7 -7 -7 -6 -6 -7 -7 -6 -4 -3 -3 -0 0 1 0 2 1 0 -1 0 2 2 1 2 3 3 3 3 2 4 2 3 2
3 3 1 -0 -5 -4 -4 -8 -8 -9 -7 -7 -7 -7 -7 -6 -6 -6 -5 -4 -4 -1 0 1 2 1 1 1 2 1 0 1 1 1 2 2 3 -0 0 1 2 2 2 2
3 2 1 0 -5 -5 -6 -9 -8 -9 -7 -6 -7 -7 -7 -7 -7 -6 -5 -3 -2 -1 -1 1 0 -0 -1 1 2 0 0 1 1 2 2 1 -1 1 1 2 -0 2 2 2
2 2 2 1 -0 -6 -8 -8 -8 -10 -6 -5 -6 -6 -6 -6 -6 -5 -5 -2 -2 -2 -1 -1 -1 -1 -2 -0 -1 0 0 0 2 1 2 2 1 1 3 1 2 2 3 2
2 1 2 2 -2 -5 -6 -8 -7 -9 -8 -4 -5 -5 -5 -6 -6 -6 -3 -3 -3 -2 -2 -2 -2 -1 -3 -2 0 -2 0 -1 -0 -1 -1 -1 2 2 2 2 3 3 3 3
2 2 2 2 -1 -7 -7 -9 -9 -10 -6 -6 -6 -5 -5 -4 -4 -3 -3 -3 -2 -2 -2 -3 -2 -2 -3 -1 -1 -1 -2 -2 -1 -0 0 1 1 2 2 3 3 2 2 2
2 2 2 -2 -0 -1 -9 -9 -10 -12 -10 -7 -5 -5 -6 -5 -5 -5 -4 -3 -3 -2 -2 -3 -2 -1 -2 -2 -2 -2 -3 -2 -1 -1 -0 1 2 1 1 2 1 1 2 3
2 2 2 0 1 0 -9 -8 -10 -7 -7 -4 -4 -4 -4 -5 -5 -4 -3 -3 -2 -3 -3 -3 -2 -2 -2 -2 -3 -2 -2 -2 -1 -0 -1 -0 -0 0 1 1 1 2 2 2
1 2 2 0 0 -10 -8 -8 -10 -5 -7 -8 -4 -3 -2 -4 -5 -5 -4 -3 -3 -4 -4 -3 -3 -3 -2 -2 -1 -3 -1 -0 -0 -1 0 0 0 1 1 0 1 1 0 1
2 2 2 1 -3 -9 -7 -8 -8 -7 -9 -10 -4 -4 -3 -4 -4 -4 -5 -6 -6 -6 -5 -5 -4 -3 -2 -2 -2 -3 -0 0 0 -0 -1 1 1 1 -0 -1 -0 1 1 0
2 1 1 0 -4 -8 -6 -7 -7 -7 -9 -10 -5 -4 -4 -4 -4 -4 -4 -4 -4 -5 -4 -4 -4 -3 -2 -1 -4 -1 -1 0 0 -1 -1 -1 -1 -1 -0 -0 -1 -0 0 0
2 1 0 -1 -2 -3 -6 -8 -6 -6 -6 -6 -6 -5 -4 -4 -5 -5 -4 -4 -5 -3 -4 -4 -4 -3 -2 -3 -4 -1 -1 -1 -2 -2 -2 -2 -2 -0 0 -1 -1 -1 -1 -1
1 0 -0 -0 -0 -3 -5 -7 -6 -7 -8 -8 -6 -4 -4 -5 -5 -5 -4 -3 -5 -6 -4 -3 -3 -3 -5 -5 -4 -4 -1 -2 -2 -3 -2 -2 -2 -1 -1 -2 -2 -2 -2 -2
-0 -1 -2 -2 -3 -5 -7 -7 -7 -8 -5 -5 -5 -4 -4 -4 -6 -6 -5 -6 -6 -5 -4 -4 -4 -3 -5 -4 -3 -3 -2 -2 -3 -4 -5 -5 -6 -5 -6 -7 -7 -5 -4 -3
-0 -0 -2 -2 -1 -3 -2 -5 -5 -6 -6 -5 -5 -5 -5 -5 -5 -5 -4 -6 -8 -6 -4 -4 -5 -5 -4 -2 -2 -2 -3 -4 -6 -9 -11 -12 -13 -13 -14 -14 -13 -9 -6 -6
-1 -2 -2 -2 -2 -2 -5 -6 -6 -7 -5 -5 -4 -4 -5 -5 -5 -5 -8 -9 -6 -4 -1 -3 -4 -6 -3 -2 -3 -3 -4 -8 -11 -13 -14 -14 -15 -15 -15 -14 -14 -12 -9 -7
-1 -2 -2 -1 -2 -3 -5 -7 -5 -6 -5 -5 -5 -5 -5 -5 -6 -6 -7 -6 -5 -2 -5 -5 -7 -5 -2 -2 -3 -5 -10 -12 -13 -14 -15 -15 -15 -14 -13 -12 -10 -9 -7 -6
-2 -2 -1 -2 -3 -4 -6 -4 -4 -5 -5 -7 -7 -6 -6 -8 -6 -6 -4 -3 -3 -4 -5 -6 -7 -4 -3 -4 -6 -11 -13 -14 -14 -15 -16 -15 -13 -11 -10 -9 -8 -7 -7 -7
-2 -3 -6 -5 -5 -3 -3 -4 -4 -5 -7 -11 -12 -8 -8 -7 -7 -6 -5 -6 -7 -7 -7 -6 -4 -3 -4 -7 -12 -14 -15 -14 -15 -17 -16 -13 -9 -7 -7 -8 -8 -8 -8 -8
-3 -5 -5 -5 -5 -4 -3 -4 -5 -6 -11 -7 -8 -10 -9 -9 -9 -8 -9 -8 -9 -9 -5 -4 -3 -5 -10 -15 -16 -14 -14 -16 -20 -18 -13 -9 -8 -7 -8 -11 -10 -8 -7 -7

GFSNW_850_dewp_117.txt.gz
Dewpoint
1 -0 3 4 3 2 -3 -0 1 1 2 0 -2 -3 -3 -3 -1 -1 1 -0 -0 1 -0 -4 -6 -5 -5 -2 -1 -0 -2 -1 -1 -0 -2 -2 2 3 3 1 3 2 3 5
1 1 3 3 2 1 -1 1 1 1 1 -0 -1 -2 -2 -4 -3 -1 1 -1 -1 -0 0 -1 -2 -2 -3 -1 -1 0 -1 -3 -2 -2 -3 -2 -0 -0 2 1 0 4 4 6
3 3 2 3 2 1 0 -1 1 1 1 -0 -2 -2 -1 -2 -3 -4 -2 -2 -2 0 0 -2 -1 -1 -2 -2 -2 -1 -5 -4 -3 0 0 -1 1 3 2 1 3 4 5 5
3 4 4 3 2 -0 -2 -5 -2 -1 1 0 -2 -4 -3 -1 -1 -3 -3 -3 -2 1 1 1 1 -2 -2 -3 -2 -3 -6 -1 -1 -1 -2 -3 2 3 3 4 3 5 5 5
4 3 3 2 -2 -0 -6 -4 -3 -2 -3 -1 -3 -5 -3 -1 -3 -3 -2 -2 -2 -1 0 1 1 1 -1 -1 -3 -5 -4 -3 -1 1 0 -1 2 2 2 3 4 4 3 3
4 4 3 2 -2 0 -6 -5 -5 -5 -4 -4 -4 -5 -4 -3 -5 -5 -3 -3 -1 -1 -1 -2 -1 -0 0 -1 -1 -3 -3 -2 -0 1 1 -0 2 3 2 2 2 3 4 3
4 3 3 2 -2 -0 -5 -6 -7 -7 -5 -4 -5 -7 -7 -5 -5 -4 -4 -3 -3 -2 -1 -0 1 1 -1 -2 -2 -1 1 0 1 0 -2 2 4 1 1 2 2 2 2 2
3 3 -0 -4 -2 -0 -4 -7 -9 -8 -6 -7 -7 -7 -6 -6 -6 -6 -4 -4 -3 -1 -0 -0 -1 1 2 0 0 0 -0 1 1 1 2 3 1 2 2 3 3 2 3 2
3 3 1 -0 -3 -3 -2 -8 -8 -9 -7 -7 -7 -7 -7 -7 -6 -6 -4 -4 -3 -1 0 1 1 1 0 1 0 0 1 1 0 1 1 2 2 0 1 0 2 2 2 2
2 2 2 1 -3 -6 -4 -9 -8 -9 -7 -6 -7 -8 -8 -8 -7 -6 -5 -3 -2 -1 -1 1 0 -0 -1 1 1 -1 -1 -0 0 0 2 1 -1 1 1 2 0 2 2 2
2 2 2 1 -0 -6 -6 -9 -9 -10 -7 -5 -6 -6 -7 -7 -7 -5 -5 -2 -1 -1 -1 -1 -1 -2 -2 -1 -1 -0 -0 1 2 1 1 1 1 1 3 1 2 2 3 3
1 2 2 2 0 -4 -9 -8 -8 -9 -9 -5 -5 -5 -6 -7 -7 -6 -3 -3 -2 -2 -2 -3 -3 -2 -3 -3 -1 -2 0 -2 -0 -1 -1 -2 2 2 2 3 3 2 3 2
2 2 2 1 1 -2 -6 -9 -8 -10 -7 -5 -5 -5 -4 -5 -5 -4 -2 -3 -2 -2 -3 -3 -3 -2 -4 -1 -1 -2 -2 -2 -1 -0 -1 1 1 1 1 2 2 2 2 3
1 1 2 1 1 -7 -10 -8 -9 -11 -10 -8 -5 -5 -6 -5 -5 -4 -3 -3 -3 -2 -2 -3 -3 -1 -3 -3 -3 -2 -3 -3 -2 -1 -1 1 2 1 1 2 2 1 2 2
2 2 2 2 1 -1 -6 -8 -10 -9 -9 -6 -4 -4 -5 -5 -4 -4 -4 -4 -3 -3 -3 -3 -2 -2 -2 -3 -3 -3 -3 -2 -1 -1 -1 -1 -0 0 0 0 0 1 1 1
1 2 2 1 1 -3 -7 -8 -9 -8 -7 -9 -4 -4 -3 -4 -4 -3 -3 -3 -3 -4 -4 -3 -3 -2 -2 -2 -2 -4 -3 -2 -2 -1 0 0 -0 -0 0 -0 -0 -0 -1 0
-0 1 2 1 0 -5 -6 -8 -9 -9 -6 -9 -4 -4 -4 -4 -4 -5 -6 -5 -6 -6 -5 -4 -4 -3 -1 -3 -2 -5 -1 -1 -0 -0 -0 -0 0 1 -0 -1 -0 -1 -1 -0
-3 1 1 1 -0 -4 -4 -6 -8 -7 -8 -9 -6 -5 -4 -4 -4 -5 -4 -5 -6 -6 -5 -4 -4 -3 -2 -2 -4 -3 -0 0 -0 -1 -1 -1 0 -0 -1 -0 -0 -0 -1 -0
-2 1 1 0 -1 -2 -5 -6 -6 -7 -6 -7 -6 -6 -5 -4 -4 -4 -4 -4 -5 -4 -4 -4 -4 -3 -2 -4 -4 -2 -0 -0 -0 -0 -2 -3 -2 -2 -1 -0 -1 -1 -1 -2
0 1 0 -0 -1 -2 -5 -4 -4 -5 -7 -7 -5 -6 -4 -4 -5 -4 -4 -3 -5 -7 -4 -4 -3 -3 -5 -6 -5 -5 -1 -1 -2 -2 -2 -2 -2 -2 -2 -2 -2 -2 -3 -3
0 0 -1 -1 -1 -1 -3 -5 -6 -7 -5 -6 -6 -5 -4 -5 -5 -5 -5 -6 -6 -4 -5 -4 -5 -4 -5 -5 -4 -4 -1 -1 -2 -3 -4 -4 -6 -9 -11 -13 -14 -14 -13 -12
-0 -0 -1 -2 -1 -2 -2 -4 -6 -6 -6 -5 -5 -5 -5 -5 -5 -5 -5 -6 -7 -6 -5 -4 -4 -5 -5 -4 -4 -2 -1 -2 -3 -5 -8 -13 -14 -15 -16 -16 -15 -15 -14 -13
-1 -0 -1 -2 -2 -2 -3 -5 -8 -8 -5 -5 -5 -4 -5 -5 -5 -5 -8 -8 -6 -4 -2 -3 -5 -6 -4 -3 -2 -2 -3 -4 -7 -12 -14 -15 -16 -16 -15 -15 -14 -13 -12 -10
-0 -2 -2 -2 -2 -3 -5 -7 -7 -7 -5 -5 -5 -4 -5 -5 -5 -6 -7 -6 -4 -1 -3 -4 -7 -6 -3 -2 -3 -3 -4 -8 -13 -15 -16 -15 -16 -16 -14 -12 -10 -10 -9 -8
-1 -2 -1 -2 -3 -4 -5 -6 -5 -5 -5 -6 -6 -6 -6 -7 -7 -6 -5 -4 -3 -3 -5 -6 -8 -5 -2 -3 -3 -4 -10 -14 -15 -15 -16 -18 -17 -12 -9 -8 -9 -10 -9 -8
-1 -2 -3 -4 -5 -3 -4 -4 -4 -4 -5 -10 -10 -8 -8 -8 -6 -5 -5 -6 -6 -6 -6 -8 -6 -3 -2 -3 -5 -11 -14 -15 -15 -17 -18 -16 -12 -10 -10 -11 -12 -12 -9 -9
-2 -4 -3 -5 -5 -4 -4 -5 -5 -5 -8 -6 -8 -11 -11 -8 -9 -7 -7 -6 -7 -11 -7 -6 -5 -3 -4 -6 -12 -14 -15 -15 -19 -19 -15 -12 -10 -10 -11 -11 -8 -7 -7 -7

GFSNW_850_dewp_120.txt.gz
Dewpoint
-4 -0 0 1 1 2 1 -0 2 1 0 0 -1 1 -2 -3 -1 0 0 -1 -1 -1 -2 -0 -1 -0 -1 -3 -1 -0 -2 -0 1 -1 -4 -3 3 3 3 5 5 4 6 6
3 3 2 2 2 0 1 1 1 1 1 1 1 -2 -2 -3 -3 -1 -1 -2 -1 -1 -1 -0 -2 -2 -3 -2 -2 -0 -2 -2 2 0 -2 -2 2 2 1 1 2 6 7 7
2 2 2 1 1 1 -2 0 2 0 1 -1 -1 -1 -2 -3 -3 -3 -2 -2 -2 -3 -2 -3 -3 -3 -2 -2 -1 -2 -5 -2 -1 2 2 1 4 2 2 2 5 5 6 5
3 3 3 2 -1 -2 -6 -3 -0 -0 1 -1 -1 -3 -2 -2 -2 -3 -3 -3 -2 -1 -1 -1 -1 -2 -2 -3 -2 -4 -5 0 -1 -1 -2 -0 2 3 3 4 4 5 5 4
3 3 2 2 -4 -8 -7 -4 -1 -2 -2 -1 -1 -5 -2 -2 -2 -3 -2 -2 -1 -2 -0 -1 -0 0 -1 -1 -2 -2 -2 0 -1 -1 -1 -1 2 2 2 3 3 3 2 3
3 3 1 -2 -4 -9 -7 -6 -5 -4 -3 -2 -2 -4 -2 -2 -3 -4 -3 -2 -2 -1 -1 -1 -1 -1 -2 -2 -1 -1 -0 -0 0 2 -0 -1 2 4 4 4 3 4 5 4
2 3 2 -1 -1 -7 -8 -7 -8 -6 -3 -2 -4 -6 -6 -4 -4 -2 -3 -3 -2 -2 -1 -0 0 -1 -2 -2 -2 -1 1 1 1 3 -1 3 1 1 2 5 4 3 3 2
3 3 3 2 1 -2 -8 -9 -9 -8 -3 -5 -7 -7 -5 -5 -5 -5 -3 -3 -2 -1 -1 -1 -1 -1 0 -2 -2 -1 -1 0 1 2 2 1 1 1 2 2 5 2 3 2
2 3 1 -1 -2 -1 -3 -9 -10 -10 -6 -6 -7 -7 -6 -4 -5 -5 -4 -3 -2 -0 0 1 2 1 -0 0 -1 -2 -0 -1 1 1 2 2 1 1 1 1 3 2 2 2
2 2 2 2 -0 -4 -2 -10 -9 -10 -7 -7 -8 -7 -6 -7 -6 -4 -4 -3 -2 -1 0 2 1 -0 -1 1 0 -0 -1 -0 1 0 2 0 -1 1 1 2 2 2 2 2
2 1 2 2 1 -3 -4 -5 -10 -10 -8 -7 -7 -8 -8 -7 -6 -4 -4 -2 -1 -1 1 -0 -1 -1 -1 -0 -1 0 0 1 2 1 1 2 1 1 2 2 2 3 3 3
-1 2 2 2 1 0 -3 -4 -8 -9 -9 -6 -6 -7 -8 -9 -9 -7 -3 -2 -1 -0 -1 -2 -3 -2 -2 -1 -0 -2 1 -1 -0 -0 -1 -0 2 2 2 2 3 2 3 3
-4 1 2 2 2 1 -4 -5 -8 -9 -7 -5 -5 -5 -6 -6 -6 -6 -2 -3 -2 -2 -3 -3 -3 -2 -3 -1 -1 -1 -2 -2 -0 -0 -1 1 1 2 3 2 3 2 2 3
-7 -5 -1 2 2 1 -1 -5 -7 -8 -9 -6 -5 -6 -5 -5 -5 -5 -3 -3 -2 -3 -3 -2 -2 -2 -3 -3 -3 -1 -2 -2 -1 -1 -1 1 1 1 1 2 0 1 2 2
-5 2 2 2 2 1 -1 -6 -7 -9 -9 -7 -4 -5 -6 -6 -5 -5 -4 -4 -3 -2 -2 -2 -1 -2 -1 -2 -2 -2 -3 -2 -1 -2 -2 -1 -0 1 0 1 0 -0 -0 -0
-1 1 2 2 2 1 1 -7 -8 -8 -6 -9 -4 -5 -4 -5 -4 -3 -3 -3 -3 -3 -2 -3 -3 -2 -1 -1 -1 -4 -3 -3 -2 -2 -1 -1 0 0 0 0 -0 -0 -0 -1
-1 0 2 2 2 1 -1 -7 -7 -6 -6 -9 -3 -4 -4 -4 -5 -5 -4 -3 -4 -5 -4 -4 -3 -3 -1 -1 -1 -5 -4 -2 -2 -1 0 0 -0 0 0 -1 -1 -1 -1 -1
-1 -1 1 1 1 1 1 -5 -7 -6 -6 -9 -3 -4 -4 -4 -4 -4 -5 -6 -6 -6 -5 -4 -4 -3 -2 -0 -3 -5 -2 -1 -0 -0 -0 -1 -1 -0 -0 -0 -1 -1 -1 -1
-1 -2 1 1 0 0 -3 -6 -6 -5 -6 -4 -5 -4 -3 -4 -4 -4 -4 -5 -4 -4 -4 -5 -4 -3 -1 -4 -4 -4 -1 -1 -0 -1 -1 -2 -1 -1 -2 -2 -1 -1 -1 -1
-1 -1 0 -0 -0 -0 -1 -2 -4 -5 -6 -5 -5 -6 -4 -4 -4 -4 -3 -3 -3 -2 -4 -4 -3 -3 -5 -7 -7 -7 -2 -0 -0 -1 -1 -2 -2 -2 -2 -2 -2 -2 -4 -10
-0 -0 -0 -1 -1 -1 -1 -2 -4 -4 -4 -5 -6 -5 -4 -5 -4 -3 -4 -3 -3 -2 -3 -2 -2 -2 -4 -7 -7 -6 -3 -1 -1 -1 -2 -3 -3 -3 -5 -9 -14 -15 -16 -16
-1 -1 -1 -2 -1 -2 -2 -2 -4 -4 -4 -5 -4 -4 -5 -6 -6 -4 -4 -3 -4 -2 -4 -2 -1 -4 -6 -5 -6 -5 -2 -1 -2 -2 -4 -5 -10 -15 -16 -16 -16 -16 -16 -15
-1 -0 -1 -2 -2 -1 -1 -1 -3 -4 -5 -5 -4 -4 -6 -5 -5 -4 -5 -3 -3 -4 -2 -2 -5 -6 -5 -5 -4 -4 -1 -1 -2 -4 -8 -14 -16 -17 -17 -17 -17 -16 -12 -11
-1 -2 -2 -2 -1 -1 -1 -3 -3 -8 -6 -5 -5 -4 -4 -4 -4 -5 -4 -5 -4 -2 -1 -2 -5 -6 -4 -4 -3 -2 -1 -2 -4 -9 -15 -16 -16 -18 -19 -14 -11 -10 -10 -11
-1 -1 -0 -1 -3 -4 -4 -7 -7 -7 -6 -5 -6 -5 -5 -4 -4 -5 -5 -4 -2 -3 -2 -3 -6 -6 -4 -3 -2 -2 -3 -6 -11 -15 -16 -17 -20 -16 -11 -10 -11 -13 -13 -12
-1 -2 -1 -4 -3 -3 -4 -5 -5 -5 -4 -7 -7 -4 -4 -4 -5 -3 -3 -4 -4 -3 -3 -7 -7 -5 -3 -2 -3 -4 -6 -12 -16 -16 -18 -20 -15 -11 -12 -13 -13 -11 -9 -8
-2 -2 -3 -3 -3 -2 -3 -5 -5 -5 -6 -3 -5 -5 -5 -7 -4 -5 -5 -4 -3 -7 -9 -8 -6 -4 -3 -3 -3 -6 -13 -15 -16 -18 -19 -15 -12 -12 -13 -13 -11 -9 -8 -8

GFSNW_850_dewp_123.txt.gz
Dewpoint
-1 0 1 2 3 2 1 2 2 -1 0 0 -1 -0 -2 -3 -2 -1 -2 -2 -2 -3 -4 -0 -0 1 0 -4 -3 -2 -3 -1 2 0 -2 -1 3 4 2 6 6 6 6 6
2 0 1 3 2 1 0 1 1 0 2 2 -0 -2 -3 -3 -3 -2 -3 -2 -3 -3 -3 -1 -4 -3 -5 -3 -3 -2 -3 -1 3 2 -1 -1 5 3 3 3 5 6 6 6
2 2 2 1 1 0 0 0 1 0 1 -2 -3 -3 -3 -3 -3 -3 -3 -3 -3 -4 -3 -5 -4 -5 -2 -3 -2 -2 -4 -2 -0 3 2 3 5 4 3 4 6 5 6 5
3 2 1 -0 -2 -2 -4 -1 0 -1 1 -2 -2 -2 -3 -3 -2 -4 -3 -3 -3 -2 -2 -3 -3 -3 -3 -3 -2 -5 -4 -1 -1 -1 0 3 2 4 3 5 6 6 6 6
3 2 1 0 -1 -7 -4 -3 -1 -2 -3 -3 -2 -3 -2 -2 -2 -3 -2 -2 -3 -3 -1 -2 -1 -2 -3 -2 -2 0 -1 -1 -2 -1 -1 -1 2 2 3 4 3 3 3 5
2 3 1 -0 -6 -8 -3 -5 -3 -4 -2 -3 -3 -4 -2 -2 -3 -3 -3 -3 -3 -2 -1 -2 -2 -3 -3 -2 -1 -0 0 0 0 3 -1 -1 1 3 4 3 3 4 6 3
3 3 3 2 -2 -7 -7 -7 -5 -5 -3 -3 -3 -5 -4 -3 -3 -2 -3 -3 -3 -1 -1 -0 -1 -2 -2 -3 -3 -2 0 0 -0 3 -1 3 1 0 2 3 3 2 2 1
3 3 2 2 2 -0 -4 -8 -8 -5 -4 -4 -6 -6 -5 -4 -4 -3 -3 -3 -2 -1 -1 -1 -1 -2 -1 -2 -3 -3 -2 -0 1 3 2 1 1 0 1 2 3 1 2 1
2 2 2 2 1 -3 -3 -5 -8 -6 -6 -5 -6 -6 -5 -4 -4 -3 -3 -2 -2 -0 -1 -1 1 1 -1 -1 -2 -3 -2 -2 1 1 2 2 1 1 1 0 3 1 1 1
2 2 2 2 1 1 -4 -4 -5 -9 -7 -6 -7 -7 -5 -5 -5 -4 -3 -2 -2 -0 -1 1 1 -1 -1 -0 -1 -1 -1 -1 1 0 2 -1 -1 0 1 3 4 1 2 2
1 1 2 2 2 0 -2 -6 -6 -7 -5 -5 -8 -8 -6 -6 -5 -4 -3 -2 -2 -1 1 -0 -1 -2 -2 -1 -2 -1 -1 -0 1 0 1 2 0 1 2 2 2 3 3 3
-7 -2 2 2 2 1 -0 -6 -8 -8 -8 -6 -7 -8 -8 -8 -7 -5 -2 -1 -1 -1 -0 -2 -3 -3 -3 -2 -2 -2 -0 -2 -1 -1 -0 0 1 1 2 2 2 2 3 3
-5 -7 0 2 2 2 1 -2 -7 -8 -8 -6 -6 -5 -7 -8 -9 -8 -3 -2 -1 -1 -1 -2 -3 -2 -4 -3 -3 -3 -3 -3 -1 -1 -2 -1 1 1 2 2 2 2 2 3
-6 -5 -8 -3 1 2 2 1 -5 -10 -9 -6 -5 -6 -6 -6 -7 -6 -4 -3 -3 -2 -2 -1 -1 -1 -4 -4 -3 -2 -3 -2 -2 -2 -2 -0 0 1 1 2 2 2 2 2
-7 -4 0 2 -0 2 1 -1 -7 -8 -10 -5 -6 -7 -6 -6 -5 -5 -4 -3 -2 -1 -2 -2 -1 -2 -2 -2 -2 -3 -4 -3 -2 -4 -4 -2 -2 0 1 1 1 2 2 1
-6 -2 1 2 2 2 1 -2 -5 -7 -9 -6 -4 -5 -4 -5 -5 -4 -4 -3 -3 -2 -2 -3 -3 -2 -1 -1 -2 -5 -5 -5 -4 -4 -3 -1 -0 1 1 1 1 1 1 0
-5 -1 2 2 2 1 1 -4 -7 -7 -8 -7 -3 -4 -3 -3 -4 -3 -3 -3 -3 -3 -2 -3 -3 -3 -2 -1 -1 -8 -5 -4 -3 -1 -0 0 0 0 1 1 1 -0 -0 -1
-4 -1 0 2 1 1 1 -1 -5 -6 -6 -8 -1 -3 -4 -3 -4 -4 -5 -3 -3 -3 -4 -4 -4 -3 -2 -0 -5 -6 -5 -3 -2 -1 -0 -0 -0 0 0 -0 -1 -0 0 -1
-3 -1 0 1 0 0 0 0 0 -5 -6 -3 -4 -2 -2 -3 -4 -4 -4 -3 -4 -4 -4 -5 -4 -5 -0 -4 -7 -5 -4 -2 -1 -0 -0 -1 -0 0 -0 -0 -1 -1 -1 -1
-3 -0 -0 -1 -0 -0 0 -0 -2 -4 -5 -5 -3 -6 -3 -4 -4 -4 -4 -3 -2 -1 -3 -4 -4 -3 -6 -6 -6 -6 -4 -2 -1 -1 -1 -1 -0 -1 -2 -3 -2 -2 -2 -3
-1 -1 -0 -1 -1 -1 -0 -1 -1 -2 -2 -3 -4 -6 -4 -4 -3 -3 -4 -2 -2 -1 -2 -2 -1 -2 -4 -6 -8 -8 -4 -1 -1 -2 -1 -2 -2 -3 -3 -3 -3 -9 -16 -16
-1 -1 -1 -2 -1 -1 -1 -1 -2 -2 -2 -4 -4 -4 -4 -4 -4 -3 -3 -2 -3 -1 -4 -2 -1 -3 -5 -6 -6 -7 -3 -1 -1 -1 -1 -2 -3 -3 -4 -12 -16 -16 -18 -18
-1 -1 -1 -1 -2 -0 -1 -1 -1 -2 -3 -4 -4 -4 -4 -5 -3 -3 -3 -2 -2 -5 -2 -2 -4 -5 -5 -5 -5 -3 -1 -1 -1 -1 -2 -4 -5 -12 -16 -16 -18 -20 -17 -13
-1 -2 -1 -1 -0 -1 -0 -1 0 -4 -3 -4 -4 -3 -3 -3 -3 -3 -2 -4 -4 -1 -1 -1 -3 -5 -6 -4 -3 -2 -2 -1 -2 -3 -4 -8 -15 -16 -17 -21 -19 -13 -12 -13
-1 -2 0 -0 -2 -2 -2 -2 -5 -5 -4 -4 -4 -3 -3 -3 -2 -3 -3 -3 -2 -3 -2 -1 -4 -5 -5 -4 -3 -2 -2 -2 -2 -3 -8 -15 -16 -18 -21 -15 -12 -13 -14 -13
-2 -1 -0 -2 -1 -1 -3 -3 -2 -5 -4 -6 -6 -3 -2 -2 -2 -3 -3 -3 -3 -0 -1 -5 -7 -5 -4 -4 -3 -3 -2 -2 -3 -9 -15 -16 -20 -20 -14 -13 -14 -15 -12 -9
-2 -1 -2 -2 -1 -1 -2 -3 -3 -5 -4 -2 -3 -2 -2 -4 -3 -3 -3 -2 0 -3 -7 -9 -7 -6 -5 -4 -3 -3 -2 -5 -10 -16 -16 -20 -19 -14 -15 -17 -16 -12 -9 -9

GFSNW_850_dewp_126.txt.gz
Dewpoint
-0 2 3 2 2 2 1 1 2 -1 0 1 -0 2 -2 -3 -2 -1 -2 -3 -3 -3 -3 -0 -1 0 -1 -4 -4 -1 -1 -1 2 1 -1 1 4 5 5 5 6 6 7 6
-0 2 2 2 2 1 1 1 1 -2 2 4 1 -3 -3 -3 -2 -3 -4 -2 -3 -4 -4 -1 -5 -1 -5 -5 -3 -2 -3 1 3 2 -0 -0 5 4 3 5 6 6 5 6
1 1 2 2 2 -0 -2 0 1 0 -1 -2 -3 -2 -3 -2 -4 -3 -3 -3 -3 -4 -3 -5 -3 -4 -3 -3 -3 -2 -3 -1 1 4 5 5 5 5 4 4 5 5 6 6
2 2 1 -2 -3 -7 -3 -2 0 -1 2 -2 -2 -2 -3 -2 -2 -4 -4 -3 -3 -2 -1 -2 -3 -2 -3 -3 -3 -2 -2 2 -1 -1 1 1 2 3 4 5 5 6 6 5
3 2 -1 0 -4 -6 -3 -1 -1 -3 -3 -3 -3 -3 -2 -2 -2 -2 -2 -2 -3 -3 -1 -1 -1 -2 -2 -1 -1 -0 -1 2 -1 -0 -2 -1 3 2 3 4 4 4 4 6
3 3 2 2 -0 -9 -3 -5 -3 -3 -3 -3 -2 -4 -2 -2 -3 -3 -3 -2 -2 -2 -1 -2 -2 -3 -3 -2 -2 -0 0 1 1 2 -1 -2 2 3 4 3 3 5 5 3
3 3 3 3 2 -8 -9 -9 -9 -4 -2 -3 -3 -5 -3 -2 -3 -2 -3 -3 -2 -1 -2 -1 -1 -1 -2 -2 -3 -2 0 1 0 2 2 3 1 1 1 2 2 1 2 1
2 2 2 2 0 -1 -6 -11 -10 -5 -2 -4 -5 -5 -5 -3 -4 -3 -3 -3 -2 -2 -1 -0 -0 -1 -1 -1 -3 -3 -2 0 2 2 1 1 1 1 1 2 2 1 2 2
1 1 1 2 2 -1 -3 -8 -12 -10 -4 -5 -6 -6 -5 -3 -3 -3 -3 -3 -2 -1 -1 -1 2 2 -1 -0 -2 -3 -2 -1 1 1 2 3 2 1 0 0 3 1 1 2
0 1 1 2 2 0 -4 -3 -8 -12 -5 -6 -7 -6 -5 -5 -4 -2 -3 -2 -2 -1 -1 0 2 -0 -2 1 -1 -1 -1 -0 1 1 2 0 -1 -0 0 4 3 2 2 2
-5 -1 1 2 2 1 -0 -3 -6 -8 -10 -7 -8 -7 -6 -6 -5 -3 -2 -2 -1 -0 0 1 0 -1 -2 -1 -3 -2 -1 -0 2 0 1 1 0 1 3 2 2 2 2 2
-8 -5 -5 2 2 2 1 -1 -6 -8 -9 -6 -9 -10 -8 -8 -6 -4 -3 -1 -1 0 1 -0 -2 -1 -3 -3 -1 -3 -0 -1 0 -1 1 1 1 1 1 1 2 2 2 2
-10 -7 -5 -1 1 1 1 1 -3 -7 -6 -5 -6 -7 -8 -8 -9 -8 -2 -2 -1 -1 -1 -1 -1 -1 -3 -2 -2 -3 -3 -3 -1 -1 -2 1 1 1 1 1 2 2 2 2
-10 -9 -5 -3 -2 1 2 1 -0 -7 -8 -6 -6 -7 -8 -8 -8 -9 -8 -3 -3 -2 -2 -1 0 0 -4 -3 -3 -2 -3 -2 -2 -2 -2 -2 1 1 2 1 2 2 2 2
-10 -9 -6 -1 2 1 1 1 -0 -7 -7 -4 -5 -6 -7 -7 -6 -7 -6 -6 -3 -1 -1 -1 -0 -2 -1 -2 -2 -1 -3 -2 -1 -1 -3 -1 -1 1 1 2 1 2 1 0
-11 -9 -4 0 1 1 1 0 -2 -4 -7 -6 -1 -4 -5 -5 -6 -6 -5 -5 -3 -2 -2 -1 -2 -2 -2 -0 -1 -4 -5 -5 -5 -4 -3 -2 -1 0 1 1 1 1 1 1
-9 -8 -3 1 2 2 1 -0 -5 -6 -7 -5 -2 -4 -3 -4 -4 -4 -3 -4 -3 -3 -2 -2 -2 -2 -3 -1 -0 -5 -6 -5 -5 -3 -3 -0 0 1 1 1 1 1 0 -0
-8 -7 -1 1 1 1 1 1 -2 -5 -7 -6 -2 -2 -4 -4 -3 -3 -3 -3 -3 -3 -3 -3 -4 -2 -2 -0 -3 -6 -7 -5 -4 -2 -2 -2 -1 -0 0 1 0 -1 -0 -0
-5 -5 -2 1 1 1 1 1 1 1 -6 -1 -3 -2 -2 -4 -4 -3 -4 -3 -2 -3 -3 -3 -4 -3 -1 -3 -4 -5 -5 -5 -3 -2 -1 -0 -0 0 -0 -0 -0 -0 0 -1
-3 -1 -2 0 -0 0 0 -0 -0 -1 -2 -5 -2 -4 -3 -4 -4 -3 -3 -3 -2 -3 -2 -4 -3 -2 -6 -9 -7 -9 -7 -6 -4 -1 -0 0 0 -0 -0 -1 -1 -2 -2 -2
-2 -0 -1 -1 -1 -0 -0 -1 -1 -2 -2 -2 -3 -5 -4 -4 -2 -1 -4 -1 -3 -3 -2 -3 -2 -1 -3 -11 -11 -10 -8 -6 -5 -4 -2 -2 -2 -1 -1 -2 -3 -3 -4 -12
-2 -1 -1 -2 -1 -1 -1 -1 -2 -1 -2 -3 -3 -5 -5 -4 -3 -1 -2 -1 -3 -3 -4 -3 -2 -2 -5 -5 -7 -7 -7 -6 -3 -2 -2 -2 -2 -2 -4 -4 -4 -8 -16 -17
-1 -2 -1 -2 -2 -1 -1 -1 -1 -2 -3 -3 -4 -4 -5 -5 -3 -1 -2 -1 -2 -5 -2 -2 -3 -6 -6 -7 -6 -6 -6 -4 -2 -1 -1 -2 -2 -3 -4 -5 -15 -16 -20 -19
-2 -2 -1 -2 -2 -2 -2 -2 -2 -3 -4 -3 -4 -4 -3 -3 -3 -3 -2 -2 -3 -4 -2 -2 -4 -12 -8 -8 -6 -5 -2 -1 -1 -1 -1 -2 -3 -4 -11 -16 -17 -22 -17 -14
-2 -2 -1 -1 -3 -2 -2 -2 -2 -4 -5 -4 -5 -4 -4 -4 -4 -4 -3 -3 -4 -3 -3 -3 -4 -7 -6 -7 -6 -2 -1 -1 -1 -2 -2 -4 -7 -13 -16 -19 -21 -15 -15 -17
-1 -2 -2 -1 -2 -2 -2 -2 -3 -4 -4 -5 -5 -5 -5 -5 -5 -4 -4 -5 -4 -5 -4 -7 -10 -8 -6 -5 -4 -2 -2 -2 -2 -2 -4 -8 -14 -16 -20 -20 -15 -16 -18 -15
-2 -2 -2 -2 -2 -2 -2 -3 -3 -4 -3 -4 -3 -2 -5 -6 -5 -4 -5 -5 -4 -2 -5 -10 -10 -8 -6 -4 -3 -3 -3 -2 -3 -4 -9 -14 -16 -20 -19 -16 -18 -19 -15 -11